User: anonymous   Login
Location: Arezzo
(43.4170°N, 11.8830°E)
Time: 22:43:38
(UTC+02:00)
Language:

STARLINK-2719 - Orbit

View from above orbital plane
View from above orbital plane
View from above satellite
View from above satellite

Ground track
Ground track

The orbit data is extracted from the following two-line orbital elements,

1 48677C 21044AR  21270.43629909 -.00006676  00000-0 -44738-3 0  2705
2 48677  53.0540 203.1587 0001902  62.3758 327.4272 15.06399485    18
Epoch (UTC): 27 September 2021 10:28:16
Eccentricity: 0.0001902
inclination: 53.0540°
perigee height: 546 km
apogee height: 548 km
right ascension of ascending node: 203.1587°
argument of perigee: 62.3758°
revolutions per day: 15.06399485
mean anomaly at epoch: 327.4272°
orbit number at epoch: 1

The dashed part of the orbit path shows where the satellite is in the earth's shadow,  

DLR